Flag for Germany Weather past 2 weeks in Lohmar, North Rhine-Westphalia, Germany

Now
45 °F

Fog.


Feels Like: 45 °F
Forecast: 44 / 61 °F
Wind: 2 mph from Northeast

Location: Koeln / Bonn

Current Time: Sep 23, 2014 at 2:19:53 AM

Latest Report: Sep 23, 2014 at 1:50 AM


Visibility: N/A

Pressure: 30.18 "Hg

Humidity: 93%

Dew point: 43 °F

Location of LohmarLocation

Historic Weather in Lohmar — Graph

°F

Lohmar temperature yesterday

Maximum temperature yesterday: 59 °F (at 12:20 PM)
Minimum temperature yesterday: 48 °F (at 10:50 PM)
Average temperature yesterday: 54 °F

Past Weeks' High & Low Weather Summary

 TemperatureHumidityPressure
High77 °F (Sep 17, 3:50 PM)100% (Sep 8, 3:20 AM)30.24 "Hg (Sep 8, 3:20 AM)
Low45 °F (Sep 12, 3:20 AM)44% (Sep 17, 4:20 PM)29.83 "Hg (Sep 18, 3:50 PM)
Average61 °F81%30.03 "Hg
* Reported Sep 8 1:20 AM — Sep 23 1:20 AM, Lohmar, Weather by CustomWeather, © 2014

Note: Actual official high and low records may vary slightly from our data, if they occured in-between our weather recording intervals... More about our weather records

Advertising

Lohmar weather history for previous 24 hours

 ConditionsComfort  
Time TempWeatherWind HumidityBarometerVisibility
1:20 AM
Sep 23
45 °FFog.2 mph93%30.18 "HgN/A
12:50 AM46 °FFog.1 mph93%30.18 "HgN/A
12:20 AM46 °FFog.1 mph93%30.18 "HgN/A
11:50 PM
Sep 22
48 °FClear.2 mph87%30.18 "Hg10 mi
11:20 PM48 °FClear.3 mph87%30.18 "Hg10 mi
10:50 PM48 °FClear.1 mph87%30.18 "Hg10 mi
10:20 PM50 °FClear.2 mph88%30.15 "Hg10 mi
9:50 PM50 °FClear.3 mph88%30.15 "Hg10 mi
9:20 PM52 °FClear.5 mph82%30.15 "Hg10 mi
8:50 PM52 °FPassing clouds.5 mph82%30.15 "HgN/A
8:20 PM52 °FPassing clouds.7 mph77%30.15 "HgN/A
7:50 PM54 °FPassing clouds.5 mph77%30.12 "HgN/A
7:20 PM54 °FPassing clouds.6 mph72%30.12 "HgN/A
6:50 PM57 °FPassing clouds.8 mph63%30.12 "HgN/A
6:20 PM57 °FScattered clouds.12 mph63%30.12 "HgN/A
5:50 PM59 °FPassing clouds.10 mph59%30.12 "HgN/A
5:20 PM59 °FPassing clouds.12 mph59%30.09 "HgN/A
4:50 PM59 °FPassing clouds.12 mph63%30.09 "HgN/A
4:20 PM57 °FPassing clouds.13 mph72%30.12 "HgN/A
3:50 PM55 °FPassing clouds.13 mph77%30.12 "HgN/A
3:20 PM54 °FPassing clouds.10 mph88%30.09 "HgN/A
2:50 PM50 °FSprinkles. Scattered clouds.13 mph88%30.09 "HgN/A
2:20 PM55 °FThunderstorms. Broken clouds.16 mph72%30.09 "Hg3 mi
1:50 PM55 °FScattered showers. Broken clouds.17 mph77%30.09 "HgN/A
1:20 PM57 °FSprinkles. Broken clouds.24 mph63%30.07 "HgN/A
12:50 PM57 °FBroken clouds.22 mph63%30.07 "HgN/A
12:20 PM59 °FScattered clouds.18 mph63%30.07 "HgN/A
11:50 AM57 °FBroken clouds.18 mph72%30.09 "HgN/A
11:20 AM57 °FPartly sunny.17 mph72%30.09 "HgN/A
10:50 AM55 °FScattered clouds.14 mph77%30.09 "HgN/A
10:20 AM55 °FBroken clouds.13 mph72%30.09 "HgN/A
9:50 AM55 °FPartly sunny.13 mph72%30.09 "HgN/A
9:20 AM55 °FBroken clouds.10 mph77%30.09 "HgN/A
8:50 AM54 °FPartly sunny.10 mph82%30.09 "HgN/A
8:20 AM54 °FSunny.8 mph82%30.09 "Hg10 mi
7:50 AM54 °FClear.10 mph82%30.09 "Hg10 mi
7:20 AM54 °FClear.10 mph82%30.09 "Hg10 mi
6:50 AM54 °FClear.8 mph82%30.09 "Hg10 mi
6:20 AM54 °FPassing clouds.8 mph82%30.09 "HgN/A
5:50 AM54 °FPassing clouds.9 mph88%30.09 "HgN/A
5:20 AM54 °FPassing clouds.10 mph88%30.12 "HgN/A
4:50 AM54 °FPartly cloudy.8 mph94%30.09 "HgN/A
4:20 AM54 °FPartly cloudy.9 mph94%30.12 "HgN/A
3:50 AM54 °FPassing clouds.10 mph94%30.12 "HgN/A
3:20 AM54 °FPartly cloudy.9 mph94%30.12 "HgN/A
2:50 AM54 °FPartly cloudy.7 mph88%30.12 "HgN/A
2:20 AM54 °FPassing clouds.7 mph88%30.12 "HgN/A
Weather by CustomWeather, © 2014

See weather overviewHow to use our weather pages